DW3195 Weather Reports


time (UTC)temp
F
wind
direction
speed
knots
gust
knots
rain 1hr
in
rain 24hr
in
rain mn
in
humidity
%
barometer
mb
20260505201005 74 300 4.3 11.3 0.00 0.01 0.00 39 921.3
20260505200505 74 261 2.6 7.0 0.00 0.01 0.00 42 921.4
20260505200005 74 292 4.3 10.4 0.00 0.01 0.00 40 921.6
20260505194505 73 307 5.2 11.3 0.00 0.01 0.00 41 921.8
20260505194005 73 314 4.3 10.4 0.00 0.01 0.00 41 921.9
20260505193005 73 304 4.3 11.3 0.00 0.01 0.00 39 922.0
20260505191505 74 288 4.3 8.7 0.00 0.01 0.00 39 922.1
20260505191005 73 307 2.6 6.1 0.00 0.01 0.00 41 922.2
20260505190505 72 301 3.5 8.7 0.00 0.01 0.00 39 922.1
20260505190005 72 322 4.3 11.3 0.00 0.01 0.00 39 922.3
20260505184504 72 308 5.2 12.2 0.00 0.01 0.00 39 922.7
20260505184005 72 310 6.1 13.0 0.00 0.01 0.00 40 922.6
20260505183505 72 304 5.2 12.2 0.00 0.01 0.00 38 922.7
20260505183005 72 298 4.3 10.4 0.00 0.01 0.00 40 922.7
20260505181506 72 283 3.5 10.4 0.00 0.01 0.00 44 923.0
20260505181005 72 311 2.6 7.0 0.00 0.01 0.00 42 923.0
20260505180005 71 289 2.6 10.4 0.00 0.01 0.00 44 923.0
20260505174504 71 287 4.3 10.4 0.00 0.01 0.00 42 923.3
20260505174005 71 313 5.2 7.8 0.00 0.01 0.00 44 923.3
20260505173004 71 284 3.5 8.7 0.00 0.01 0.00 47 923.4
20260505171505 70 294 3.5 8.7 0.00 0.01 0.00 50 923.5
20260505171005 69 275 2.6 7.8 0.00 0.01 0.00 47 923.5
20260505170505 69 324 2.6 7.0 0.00 0.01 0.00 47 923.6
20260505164505 69 313 2.6 7.0 0.00 0.01 0.00 49 923.7
20260505164005 69 282 3.5 7.8 0.00 0.01 0.00 46 923.7
20260505163504 69 277 4.3 7.0 0.00 0.01 0.00 47 923.8
20260505163004 69 292 3.5 7.8 0.00 0.01 0.00 46 923.9
20260505161505 69 273 4.3 7.8 0.00 0.01 0.00 46 924.0
20260505161005 69 293 3.5 7.8 0.00 0.01 0.00 47 924.2
20260505160505 69 276 4.3 11.3 0.00 0.01 0.00 49 924.3
20260505153006 67 283 6.1 10.4 0.00 0.01 0.00 48 924.3
20260505151506 68 262 4.3 11.3 0.00 0.01 0.00 50 924.6
20260505151006 67 308 4.3 10.4 0.00 0.01 0.00 50 924.7
20260505150506 67 325 5.2 8.7 0.00 0.01 0.00 49 924.8
20260505140506 65 288 5.2 11.3 0.00 0.02 0.00 53 924.6
20260505124006 59 283 1.7 6.1 0.00 0.02 0.00 64 924.2
20260505121505 47 266 0.9 2.6 0.00 0.02 0.00 98 923.9
20260505121005 46 358 0.0 2.6 0.00 0.02 0.00 98 923.9
20260505120506 45 225 0.0 1.7 0.00 0.02 0.00 98 923.9
20260505120006 45 263 0.0 1.7 0.00 0.02 0.00 97 923.9
20260505114505 44 112 0.0 0.9 0.00 0.02 0.00 98 923.7
20260505114006 44 188 0.9 2.6 0.00 0.02 0.00 98 923.6
20260505113505 44 100 0.9 2.6 0.00 0.02 0.00 98 923.6
20260505113006 43 139 1.7 2.6 0.00 0.02 0.00 99 923.5
20260505111505 41 165 0.0 0.9 0.00 0.02 0.00 98 923.6
20260505111005 41 110 0.0 1.7 0.00 0.02 0.00 98 923.6
20260505110505 42 118 0.0 1.7 0.00 0.02 0.00 98 923.6
20260505101005 40 177 0.0 1.7 0.00 0.02 0.00 96 923.1
20260505100505 41 336 0.0 1.7 0.00 0.02 0.00 96 923.0
20260505094504 41 350 0.9 1.7 0.00 0.02 0.00 96 923.0
20260505093505 41 20 0.9 1.7 0.00 0.02 0.00 96 923.1
20260505093005 41 350 0.0 1.7 0.00 0.02 0.00 96 923.1
20260505091504 41 352 0.9 2.6 0.00 0.02 0.00 96 923.0
20260505091005 41 356 0.9 2.6 0.00 0.02 0.00 96 923.0
20260505090505 41 16 0.9 1.7 0.00 0.02 0.00 96 923.1
20260505090004 41 79 0.9 1.7 0.00 0.02 0.00 96 923.0
20260505084505 41 149 0.9 1.7 0.00 0.02 0.00 95 923.1
20260505084004 41 103 0.9 1.7 0.00 0.02 0.00 95 923.1
20260505083505 41 151 0.0 1.7 0.00 0.02 0.00 95 923.1
20260505083005 41 3 0.9 1.7 0.00 0.02 0.00 94 923.2
20260505081504 41 32 0.0 0.9 0.00 0.02 0.00 94 923.2
20260505081005 41 104 0.0 0.9 0.00 0.02 0.00 94 923.1
20260505080505 41 146 0.0 0.9 0.00 0.02 0.00 93 923.1
20260505080004 42 67 0.0 0.9 0.00 0.02 0.00 93 923.2
20260505074504 42 5 0.0 1.7 0.00 0.02 0.00 92 922.9
20260505074005 42 137 0.9 0.9 0.00 0.02 0.00 92 922.9
20260505073504 43 145 0.0 0.9 0.00 0.02 0.00 91 922.9
20260505073004 43 179 0.0 1.7 0.00 0.02 0.00 90 922.9
20260505071004 44 175 0.0 0.9 0.00 0.02 0.00 88 922.6
20260505070504 45 164 0.0 0.9 0.00 0.02 0.00 87 922.7
20260505070004 45 127 0.0 1.7 0.00 0.02 0.00 87 922.6
20260505064504 47 119 0.0 1.7 0.00 0.02 0.00 85 922.6
20260505064005 47 34 0.9 1.7 0.00 0.02 0.00 84 922.6
20260505063506 48 87 0.9 1.7 0.00 0.02 0.00 83 922.5
20260505063006 48 145 0.9 1.7 0.00 0.02 0.00 82 922.5
20260505061505 51 55 0.9 1.7 0.00 0.02 0.00 78 922.4
20260505061006 52 25 0.9 1.7 0.00 0.02 0.00 76 922.4
20260505060006 54 78 0.9 4.3 0.00 0.02 0.00 72 922.4
20260505054506 55 343 1.7 4.3 0.00 0.02 0.00 68 922.1
20260505054006 56 354 1.7 4.3 0.00 0.02 0.00 67 922.2
20260505053506 57 1 1.7 4.3 0.00 0.02 0.00 67 922.2
20260505051006 60 305 2.6 7.0 0.00 0.02 0.00 58 922.0
20260505050505 59 280 5.2 10.4 0.00 0.02 0.00 58 922.0
20260505041505 58 275 1.7 5.2 0.01 0.02 0.00 65 921.6
20260505041006 57 311 2.6 6.1 0.01 0.02 0.00 65 921.6
20260505040006 56 302 2.6 7.0 0.00 0.01 0.00 68 921.6
20260505034505 55 333 1.7 5.2 0.00 0.01 0.01 72 921.8
20260505034005 55 205 0.9 2.6 0.00 0.01 0.01 72 921.8
20260505033505 55 342 1.7 4.3 0.00 0.01 0.01 72 922.0
20260505033005 55 15 1.7 5.2 0.00 0.01 0.01 72 922.0
20260505031505 53 5 0.9 2.6 0.00 0.01 0.01 76 922.1
20260505031005 53 31 0.9 2.6 0.00 0.01 0.01 77 922.2
20260505030006 51 354 0.9 4.3 0.00 0.01 0.01 82 922.2
20260505024506 48 105 0.0 1.7 0.00 0.01 0.01 87 922.3
20260505024006 48 74 0.9 1.7 0.00 0.01 0.01 88 922.3
20260505023505 48 129 0.9 1.7 0.00 0.01 0.01 88 922.3
20260505023005 48 4 0.9 1.7 0.00 0.01 0.01 88 922.3
20260505021505 48 348 0.0 1.7 0.00 0.01 0.01 88 922.3
20260505021005 49 30 0.9 1.7 0.00 0.01 0.01 88 922.3
20260505020505 49 85 0.9 1.7 0.00 0.01 0.01 88 922.3
20260505020005 49 90 0.0 1.7 0.00 0.01 0.01 87 922.3
20260505014505 49 117 0.0 1.7 0.00 0.01 0.01 86 922.4
20260505014005 49 68 0.0 0.9 0.00 0.01 0.01 85 922.4
20260505013505 49 91 0.0 0.9 0.00 0.01 0.01 85 922.3
20260505013005 49 77 0.9 2.6 0.00 0.01 0.01 84 922.3
20260505011505 50 75 0.0 0.9 0.00 0.01 0.01 83 922.3
20260505011005 50 18 0.0 0.9 0.00 0.01 0.01 82 922.3
20260505010505 51 97 0.0 1.7 0.00 0.01 0.01 80 922.2
20260505010006 51 24 0.9 1.7 0.00 0.01 0.01 79 922.1
20260505004005 54 226 0.9 1.7 0.00 0.01 0.01 73 922.0
20260505003005 56 7 0.9 1.7 0.00 0.01 0.01 70 921.9
20260505001505 60 59 0.9 2.6 0.00 0.01 0.01 64 921.9
20260505001005 61 16 0.9 1.7 0.00 0.01 0.01 61 921.9
20260505000505 62 15 1.7 1.7 0.00 0.01 0.01 59 921.9
20260505000005 63 12 0.9 4.3 0.00 0.01 0.01 56 921.9
20260504234505 66 337 1.7 4.3 0.00 0.01 0.01 51 921.7
20260504234005 66 356 0.9 2.6 0.00 0.01 0.01 49 921.7
20260504233505 67 329 1.7 6.1 0.00 0.01 0.01 49 921.7
20260504233004 68 307 2.6 7.0 0.00 0.01 0.01 48 921.7
20260504231505 70 307 2.6 7.8 0.00 0.01 0.01 45 921.7
20260504231005 70 310 4.3 7.8 0.00 0.01 0.01 44 921.7
20260504230505 71 337 4.3 11.3 0.00 0.01 0.01 42 921.6
20260504230005 72 320 2.6 7.0 0.00 0.01 0.01 43 921.8
20260504224505 72 327 2.6 7.8 0.00 0.01 0.01 43 921.8
20260504224005 72 280 3.5 6.1 0.00 0.01 0.01 43 921.8
20260504223505 71 300 2.6 6.1 0.00 0.01 0.01 44 921.9
20260504223004 72 317 3.5 10.4 0.00 0.01 0.01 44 921.8
20260504221504 72 325 3.5 8.7 0.00 0.01 0.01 42 921.8
20260504221005 72 289 4.3 11.3 0.00 0.01 0.01 42 921.9
20260504220505 73 298 3.5 7.8 0.00 0.01 0.01 45 921.9
20260504220005 72 268 5.2 11.3 0.00 0.01 0.01 43 921.8
20260504214504 72 289 5.2 8.7 0.00 0.01 0.01 42 921.9
20260504214004 72 301 4.3 8.7 0.00 0.01 0.01 44 921.8
20260504213006 72 290 5.2 12.2 0.00 0.01 0.01 45 921.9
20260504211506 72 273 5.2 12.2 0.00 0.01 0.01 45 921.9
20260504211006 73 281 5.2 12.2 0.00 0.01 0.01 45 921.9
20260504210506 73 273 5.2 10.4 0.00 0.01 0.01 45 922.0
20260504204506 72 272 4.3 8.7 0.00 0.01 0.01 47 922.1
20260504204005 72 309 4.3 7.8 0.00 0.01 0.01 47 922.1
20260504203507 73 287 4.3 8.7 0.00 0.01 0.01 46 922.1
20260504203006 73 286 4.3 11.3 0.00 0.01 0.01 47 922.1
20260504201506 73 288 4.3 10.4 0.00 0.01 0.01 47 922.1